Location: Berduj
(43.0019°N, 22.3781°E)
Time: 20:09:18
(UTC+00:00)

ATLAS 5 CENTAUR R/B - Visible Passes

Search period start: 20 January 2020 00:00
Search period end: 30 January 2020 00:00
Orbit: 550 x 1109 km, 63.4° (Epoch: 17 January)

Date Brightness Start Highest point End Pass type
(mag) Time Alt. Az. Time Alt. Az. Time Alt. Az.
20 Jan 3.9 16:41:45 10° WNW 16:44:38 17° NNW 16:47:44 10° N visible
21 Jan 3.9 16:22:26 10° WNW 16:25:25 17° NNW 16:28:39 10° N visible
22 Jan 3.8 16:03:08 10° WNW 16:06:13 18° NNW 16:09:33 10° N visible
